Location: Ffm
(50.0000°N, 8.5000°E)
Time: 09:03:28
(UTC+01:00)

Envisat - Pass Details

Date: 31 October 2020
Orbit: 764 x 766 km, 98.1° (Epoch: 03 December)

Event Time Altitude Azimuth Distance (km) Brightness Sun altitude
Rises 05:29:20 0° 23° (NNE) 3,243 6.5 -17.3°
Reaches altitude 10° 05:32:04 10° 37° (NE) 2,311 5.9 -16.9°
Maximum altitude 05:36:13 25° 92° (E) 1,519 5.5 -16.2°
Drops below altitude 10° 05:40:20 10° 147° (SSE) 2,296 6.0 -15.5°
Sets 05:43:01 0° 160° (SSE) 3,217 6.6 -15.1°
